Location: Amsterdam
(30.7274°N, 84.4357°W)
Time: 08:44:48
(UTC+00:00)

Explorer 11/Cluster Stage 4 - Pass Details

Date: 16 February 2026
Orbit: 463 x 1175 km, 28.8° (Epoch: 12 March)

Event Time Altitude Azimuth Distance (km) Brightness Sun altitude
Rises 18:54:22 0° 240° (WSW) 2,730 9.9 44.6°
Reaches altitude 10° 18:56:54 10° 231° (SW) 1,749 9.2 44.4°
Maximum altitude 19:00:29 34° 165° (SSE) 810 7.9 44.1°
Drops below altitude 10° 19:03:48 10° 99° (E) 1,608 8.2 43.8°
Sets 19:06:02 0° 89° (E) 2,473 9.0 43.6°
